This demonstration page uses our WeatherBlox Daily Observations layout. Learn more.

Left ArrowRight Arrow

Hourly Observations for April 26, 2021

Temp ( °F °C ) Dew Point ( °F °C ) Humidity (%) Winds ( mph kmh ) Pressure ( in mb ) Visibility ( mi km ) Precip ( " mm )
12:53 am 00:53 Cloudy 36 2.2 33 0.6 89 89 ENE 6 9 29.72 1006 10 16 0.00 0.00
1:53 am 01:53 Clear 35 1.7 32 0 89 89 NNE 5 7 29.71 1006 10 16 0.00 0.00
2:53 am 02:53 Mostly Cloudy 35 1.7 32 0 89 89 E 7 11 29.69 1006 10 16 0.00 0.00
3:53 am 03:53 Mostly Cloudy 35 1.7 33 0.6 93 93 NE 3 6 29.69 1005 10 16 0.00 0.00
4:53 am 04:53 Mostly Cloudy 35 1.7 32 0 89 89 N 3 6 29.68 1005 10 16 0.00 0.00
5:53 am 05:53 Cloudy 35 1.7 33 0.6 93 93 WNW 3 6 29.69 1005 10 16 0.00 0.00
6:15 am 06:15 Cloudy 35 1.7 33 0.6 93 93 W 3 6 29.73 1007 9 14 0.00 0.00
6:53 am 06:53 Cloudy with Light Rain 36 2.2 34 1.1 93 93 Calm 29.70 1006 8 13 0.00 0.00
7:53 am 07:53 Cloudy 37 2.8 34 1.1 89 89 Calm 29.71 1006 10 16 0.00 0.00
8:11 am 08:11 Cloudy with Light Rain 37 2.8 34 1.1 89 89 WSW 3 6 29.74 1007 2 3 0.01 0.25
8:27 am 08:27 Cloudy with Light Rain 37 3 36 2 93 93 WSW 3 6 29.74 1007 5 8 0.00 0.00
8:53 am 08:53 Cloudy with Light Rain 37 2.8 35 1.7 93 93 Calm 29.72 1006 5 8 0.06 1.52
9:53 am 09:53 Cloudy 38 3.3 35 1.7 89 89 ESE 3 6 29.72 1006 10 16 0.00 0.00
10:33 am 10:33 Cloudy 41 5 37 2.8 86 86 Calm 29.71 1006 10 16 0.00 0.00
10:40 am 10:40 Cloudy 43 6.1 38 3.3 82 82 ESE 3 6 29.70 1006 10 16 0.00 0.00
10:53 am 10:53 Mostly Cloudy 43 6.1 39 3.9 86 86 VRB 5 7 29.71 1006 10 16 0.00 0.00
11:08 am 11:08 Cloudy 46 7.8 39 3.9 77 77 WSW 7 11 29.68 1005 10 16 0.00 0.00
11:53 am 11:53 Mostly Cloudy 48 8.9 39 3.9 71 71 WSW 10 17 29.68 1005 10 16 0.00 0.00
12:04 pm 12:04 Partly Cloudy 50 10 38 3.3 63 63 WSW 10 17 29.65 1004 10 16 0.00 0.00
12:53 pm 12:53 Mostly Cloudy 53 11.7 38 3.3 57 57 SW 14 22 29.66 1004 10 16 0.00 0.00
1:53 pm 13:53 Mostly Cloudy 53 11.7 33 0.6 47 47 W 5 7 29.65 1004 10 16 0.00 0.00
2:53 pm 14:53 Mostly Cloudy 55 12.8 30 -1.1 38 38 W 16 26 29.64 1004 10 16 0.00 0.00
3:53 pm 15:53 Mostly Cloudy 59 15 29 -1.7 32 32 WSW 14 22 29.62 1003 10 16 0.00 0.00
4:53 pm 16:53 Mostly Cloudy 57 13.9 26 -3.3 30 30 W 14 22 29.63 1003 10 16 0.00 0.00
5:53 pm 17:53 Cloudy 58 14.4 28 -2.2 32 32 WNW 6 9 29.63 1003 10 16 0.00 0.00
6:53 pm 18:53 Mostly Cloudy 58 14.4 29 -1.7 33 33 WNW 9 15 29.64 1004 10 16 0.00 0.00
7:53 pm 19:53 Mostly Cloudy 53 11.7 32 0 45 45 WNW 3 6 29.67 1005 10 16 0.00 0.00
8:53 pm 20:53 Clear 47 8.3 31 -0.6 54 54 SW 5 7 29.70 1006 10 16 0.00 0.00
9:53 pm 21:53 Cloudy 44 6.7 33 0.6 65 65 S 9 15 29.73 1007 10 16 0.00 0.00
10:53 pm 22:53 Cloudy 46 7.8 32 0 58 58 W 5 7 29.75 1007 10 16 0.00 0.00
11:53 pm 23:53 Partly Cloudy 42 5.6 31 -0.6 65 65 WSW 5 7 29.76 1008 10 16 0.00 0.00

Powered by AerisWeather